Temp
22 22 20 22 21 20 20 19 20 20 20 19 19 19 19 19 18 18 18 18 18 18 18 17 17 17 17 16 16 16 17 17 17 17 17 16 16 16 16 17 17 16 16
22 22 19 18 19 21 22 23 21 20 19 19 19 18 18 18 18 18 18 18 18 18 17 17 17 16 16 16 16 16 16 16 16 16 16 16 15 15 15 16 16 15 15
20 21 19 18 18 19 19 21 20 20 19 19 18 18 18 18 18 18 18 18 18 17 17 17 16 16 15 15 16 16 16 16 16 17 17 17 15 15 15 15 15 14 14
20 21 20 18 18 19 20 19 20 19 19 18 18 18 18 18 18 17 17 17 17 17 17 17 16 16 15 15 16 16 16 16 17 18 19 18 16 15 14 14 14 14 14
19 21 20 19 19 18 18 19 19 18 18 18 17 18 17 17 17 17 17 17 17 17 16 16 16 15 15 15 16 15 16 16 17 19 18 17 16 14 14 14 14 13 14
18 21 20 19 19 18 18 18 18 18 18 18 17 17 17 17 17 17 17 17 16 16 16 16 15 14 15 15 15 15 16 17 18 17 17 16 15 14 13 13 13 13 13
18 19 19 19 19 19 18 18 18 18 17 17 17 17 17 17 17 17 17 17 16 16 15 15 14 15 15 15 15 15 16 17 18 18 17 16 14 14 13 13 13 12 12
17 18 18 18 19 19 18 18 18 17 17 17 17 17 17 17 17 17 17 17 16 16 15 14 14 15 15 15 15 15 16 17 18 18 17 15 13 13 13 13 12 12 12
16 16 17 17 16 17 18 18 19 17 17 17 17 17 17 17 17 17 17 16 17 16 16 16 15 15 15 14 14 15 15 17 18 17 17 15 13 13 13 12 12 12 11
16 16 17 16 17 16 15 17 18 18 17 17 17 17 16 17 17 17 17 16 16 17 16 15 15 15 15 15 14 14 15 16 17 17 17 14 13 13 12 12 12 11 11
16 16 16 15 15 15 15 16 17 17 16 17 17 16 16 16 16 17 17 16 16 17 16 16 16 15 15 14 14 15 16 17 17 17 16 13 13 13 12 12 11 11 11
15 15 16 17 17 15 15 15 15 15 15 16 16 16 17 16 16 17 16 16 16 16 16 15 15 15 15 15 14 15 17 17 17 17 15 13 13 13 12 12 11 11 11
15 14 14 15 15 14 15 15 15 14 15 15 16 16 17 16 17 16 15 15 15 15 15 15 14 16 17 17 16 17 16 17 17 16 14 13 13 13 12 12 11 11 10
14 14 14 14 14 14 14 14 14 14 13 13 14 16 15 15 16 17 16 17 16 16 16 16 16 17 17 17 16 16 16 17 17 16 14 13 13 12 12 12 11 11 10
14 14 13 13 13 13 14 14 13 13 14 13 14 16 15 15 16 17 17 17 17 18 17 17 17 16 16 16 16 16 16 16 16 16 15 13 13 12 12 12 12 11 11
14 14 13 13 13 13 13 12 12 13 13 13 14 15 15 15 16 17 17 17 17 17 17 17 17 16 17 17 16 16 16 16 16 16 16 13 13 13 12 12 12 11 11
14 14 13 13 13 13 13 12 12 13 12 13 13 15 15 15 15 16 17 17 17 18 17 17 17 17 17 17 16 16 16 15 15 15 16 15 13 12 13 12 12 12 11
14 14 13 12 12 13 13 12 12 12 13 13 13 14 14 15 15 16 16 17 17 17 17 17 17 17 17 17 17 16 16 16 15 15 15 15 15 15 13 12 12 12 11
13 13 13 13 12 11 12 12 12 13 13 13 14 16 15 15 16 15 16 16 16 17 17 17 17 17 17 17 17 17 16 16 15 15 15 14 14 15 15 13 12 12 12
15 13 13 13 12 12 12 12 12 13 13 13 13 14 16 16 15 15 16 15 16 17 17 17 16 16 17 17 17 16 16 15 15 15 14 14 14 14 14 15 13 13 12
14 14 12 12 12 12 11 12 12 12 12 13 14 14 14 16 15 15 16 16 16 17 17 16 15 15 16 16 16 15 15 14 14 15 14 15 15 14 14 14 14 15 13
16 14 12 12 12 12 12 12 12 13 12 13 14 13 14 15 15 14 15 16 16 17 16 15 15 16 16 15 17 18 18 16 15 15 15 15 15 15 14 13 13 14 14
15 13 14 13 12 12 12 12 12 12 12 12 13 14 14 15 15 15 15 16 15 15 15 15 15 15 16 15 16 18 19 19 19 17 15 15 14 14 14 13 13 13 13
16 15 15 14 13 12 12 12 12 12 12 13 13 13 15 14 15 15 15 15 15 15 15 15 14 14 15 16 14 15 16 16 19 18 16 14 14 12 13 13 13 13 13
16 15 14 14 13 12 12 12 12 12 13 13 13 13 14 13 14 14 15 14 14 14 14 14 14 13 14 15 16 16 15 15 14 14 14 14 13 12 12 13 13 14 13
17 16 14 14 13 12 12 12 12 12 12 13 12 12 12 13 13 14 15 15 15 15 16 17 15 13 14 14 15 15 16 16 15 14 11 11 11 13 13 13 14 13 12
Height
768 769 770 772 774 777 779 784 788 794 796 798 801 801 801 801 808 814 817 821 824 826 828 831 832 835 834 837 840 840 841 843 845 846 847 849 851 851 852 852 853 854 853
772 773 775 776 777 776 776 774 786 792 797 798 803 806 802 801 810 816 819 823 825 827 831 832 833 836 838 840 842 843 845 845 848 850 851 852 855 856 858 857 858 859 858
773 773 775 777 778 779 781 779 784 789 795 799 804 807 809 803 810 817 820 823 827 830 834 836 836 839 842 843 847 847 847 849 850 852 857 857 859 862 863 862 861 863 862
773 774 777 779 779 780 781 783 784 788 793 799 803 804 810 810 807 817 822 824 829 832 836 838 841 841 845 847 849 850 851 852 853 856 858 860 863 866 866 868 864 867 868
770 774 778 780 781 783 784 784 784 789 795 801 805 806 811 812 811 817 824 826 831 834 838 841 843 844 848 850 852 854 856 856 856 860 860 865 866 869 869 871 869 870 869
770 773 776 779 780 784 785 785 786 790 794 802 806 809 813 815 815 817 825 830 833 837 840 843 845 847 851 854 856 858 858 857 862 862 864 866 870 872 872 873 874 873 875
769 773 777 778 782 785 785 788 788 792 796 800 804 809 814 817 818 820 827 831 834 840 842 845 848 849 854 856 858 860 860 861 863 864 868 869 873 876 876 877 877 878 878
769 769 775 776 780 783 785 786 789 794 798 801 806 811 814 819 821 821 828 832 836 840 845 848 851 852 855 858 859 863 863 865 865 867 869 873 878 878 877 881 880 881 881
769 769 772 777 777 786 788 784 788 791 797 802 808 813 817 821 825 823 828 833 837 842 848 850 853 854 857 860 862 865 867 867 868 870 870 876 881 881 881 883 881 883 884
770 769 770 774 782 781 789 792 792 793 796 801 809 814 820 822 828 826 827 835 839 844 849 853 855 856 860 861 865 868 869 869 871 872 875 878 883 883 884 885 885 886 887
770 770 771 773 779 783 786 789 795 795 799 799 810 816 820 826 830 830 830 836 842 846 851 855 856 857 862 865 867 869 870 871 874 875 878 880 883 885 887 887 888 889 889
770 770 772 774 779 783 784 788 793 798 801 803 809 817 822 828 831 833 832 838 843 849 855 857 857 859 864 869 870 870 873 873 876 878 881 883 884 885 888 890 891 892 892
770 772 775 775 776 778 782 787 791 791 797 807 810 817 821 827 831 833 833 842 846 852 858 860 861 862 865 869 870 871 874 875 877 879 882 885 887 889 890 891 893 894 895
769 771 774 776 776 779 780 785 790 797 802 808 811 816 820 826 831 833 834 841 847 852 857 859 861 862 865 868 871 872 873 876 877 880 883 886 888 890 892 893 894 895 896
769 771 773 775 778 779 781 784 790 792 798 806 812 816 822 828 829 833 834 840 846 851 855 856 860 864 866 870 870 872 876 876 879 880 884 887 888 889 891 894 895 896 896
768 771 773 776 778 781 783 785 789 791 793 805 811 818 826 827 828 833 834 840 846 850 853 855 858 863 865 869 871 873 876 877 880 882 884 888 889 891 892 892 894 895 897
767 769 773 775 778 782 785 786 789 791 795 804 814 819 824 825 826 833 835 840 844 848 852 855 857 863 865 868 870 873 876 877 880 881 884 886 888 890 892 892 892 893 895
765 767 771 774 777 781 783 787 790 795 801 808 814 818 821 823 826 832 835 840 844 848 851 855 857 861 864 867 868 872 875 876 879 881 883 885 887 888 889 891 892 892 893
764 766 769 772 776 780 784 787 792 797 802 808 812 818 822 824 827 832 836 841 844 847 851 853 856 859 863 865 868 871 874 875 877 879 881 884 886 888 888 887 890 891 891
762 764 767 770 774 779 784 789 794 798 803 808 812 818 822 824 827 835 839 841 843 847 850 852 856 859 861 864 867 869 872 874 876 878 879 880 882 884 884 884 886 887 889
759 762 765 767 771 777 781 787 794 796 802 808 812 818 821 826 833 837 838 839 842 845 848 851 854 858 861 864 867 870 871 871 872 874 875 877 879 880 882 880 881 882 882
756 760 763 766 769 773 778 784 790 796 801 805 811 816 822 825 830 832 835 836 839 844 847 850 853 857 859 862 863 863 864 867 867 867 869 872 873 875 878 877 877 878 879
752 757 760 764 767 770 776 782 790 796 801 805 808 813 818 822 825 829 832 835 838 842 845 847 851 856 858 862 860 858 856 855 855 860 864 867 868 869 871 871 872 872 874
747 752 756 760 764 768 770 776 780 786 792 797 804 809 812 817 822 825 828 833 836 840 842 844 849 852 855 857 859 857 856 856 854 857 860 863 864 863 863 863 865 867 869
742 748 752 756 760 764 768 772 777 782 788 795 802 807 811 812 813 820 824 828 831 833 838 841 844 848 850 851 852 854 854 854 857 856 859 860 861 859 859 858 860 860 862
738 743 748 752 756 759 763 769 772 778 783 789 796 800 805 807 810 814 819 824 826 829 830 832 837 844 845 847 846 847 847 848 849 851 857 854 855 856 853 853 854 854 856
Wind_Speed
14 20 26 26 30 37 38 33 33 33 34 34 33 34 35 38 32 30 31 29 28 27 25 24 24 24 26 25 26 27 30 29 29 29 29 28 27 27 28 29 28 28 30
14 19 23 21 29 37 41 37 36 35 35 35 33 33 37 38 34 33 32 30 28 26 24 24 24 23 24 25 29 32 32 31 32 31 29 28 27 27 27 29 28 28 29
13 20 23 18 27 31 35 38 40 38 38 36 34 34 35 39 37 34 33 31 30 27 25 24 25 24 24 26 29 30 30 32 29 27 24 22 24 25 25 25 25 25 26
14 22 23 22 26 30 35 39 41 40 40 38 37 38 37 37 39 34 33 33 31 28 26 25 25 25 24 27 27 26 27 30 27 22 21 22 22 22 23 23 26 25 25
14 24 23 24 25 26 33 39 40 40 38 37 37 37 36 36 38 36 35 34 31 29 26 25 25 25 25 27 26 28 29 28 25 22 23 21 20 21 24 23 25 25 25
16 22 25 27 25 28 33 37 39 39 39 39 38 37 36 36 37 38 35 35 32 29 27 25 24 26 27 28 29 29 29 27 22 22 22 22 21 21 22 23 24 24 24
15 18 22 26 29 27 32 35 38 39 41 40 38 37 37 37 39 39 37 36 31 29 27 26 26 29 29 27 28 30 27 22 21 21 21 22 22 21 23 22 23 23 23
10 20 20 25 30 29 32 35 39 39 40 39 38 38 38 38 40 41 37 33 31 27 28 28 28 29 27 26 29 26 25 22 21 22 22 21 21 22 22 22 22 22 23
8 11 18 14 18 21 26 34 34 40 38 37 38 39 38 39 39 40 36 32 31 30 30 31 30 29 28 28 28 27 22 20 20 21 22 21 20 21 21 21 22 22 22
6 10 18 24 24 19 17 27 29 33 39 39 38 39 40 40 38 37 36 33 33 33 32 31 30 29 27 27 26 25 24 21 19 19 19 21 20 20 20 21 21 21 21
6 12 13 20 20 27 29 20 23 31 36 39 39 40 40 32 31 34 31 35 34 33 32 31 30 29 27 26 25 24 17 17 16 17 18 22 21 20 19 19 20 20 21
6 18 20 20 22 23 28 31 23 26 32 38 39 37 34 30 30 27 30 33 34 33 31 30 30 28 24 20 21 15 14 15 14 15 18 21 19 19 19 18 18 18 19
9 17 14 16 19 20 29 22 23 22 29 31 33 36 31 29 28 26 29 29 31 31 26 25 27 20 19 18 15 13 15 14 14 16 19 19 18 18 17 18 17 17 17
9 15 15 14 16 22 28 34 33 28 37 38 39 35 31 29 28 27 29 28 30 27 25 23 21 17 17 16 15 16 14 14 14 15 17 17 17 17 16 16 16 14 14
12 10 12 11 14 21 25 31 37 31 37 38 38 31 29 29 28 28 29 28 28 25 25 23 18 17 16 16 16 15 13 13 13 14 15 17 16 18 17 15 15 15 13
13 14 13 13 15 16 15 22 29 25 41 38 36 29 30 29 30 26 28 26 24 23 22 21 21 19 17 16 15 14 12 12 11 11 12 14 14 15 16 16 15 14 15
12 13 14 15 16 16 17 21 26 26 32 36 33 28 28 28 28 25 25 23 23 22 21 20 20 17 16 15 15 13 12 12 11 11 11 11 13 15 15 16 16 16 16
9 16 15 16 21 20 20 25 26 29 31 34 31 27 28 31 32 23 23 21 21 20 20 19 18 17 16 16 15 13 12 11 11 10 9 10 11 11 16 16 16 17 18
11 12 18 19 22 25 24 23 27 32 35 26 24 23 23 25 26 19 19 20 21 19 19 18 17 17 15 14 14 14 12 11 12 10 11 11 11 11 11 14 17 16 17
13 14 16 23 22 25 26 26 25 29 33 34 23 22 24 25 17 18 19 20 20 19 19 17 16 14 15 15 14 13 12 12 11 12 11 11 12 14 13 12 14 16 18
14 13 17 23 26 28 25 27 25 25 32 34 30 20 24 24 27 23 21 21 21 20 19 18 15 15 13 13 12 10 10 11 13 12 12 12 14 15 14 14 15 14 16
17 16 14 18 27 27 28 31 29 26 25 35 32 27 23 25 25 23 21 22 21 19 18 18 16 14 14 16 12 11 6 11 16 18 16 18 17 16 16 16 15 15 14
17 16 17 18 28 33 30 28 26 22 22 24 32 33 28 23 22 24 26 22 22 19 19 17 17 17 13 15 16 9 4 6 7 12 19 20 18 19 19 18 22 18 18
18 17 17 18 21 28 30 31 32 35 30 29 31 29 28 25 25 26 26 23 21 20 18 17 16 16 17 16 15 18 13 4 5 4 9 14 18 24 22 21 21 21 21
19 19 18 18 20 24 31 30 34 32 32 28 28 30 30 26 23 28 28 23 22 21 17 15 12 17 18 21 17 12 16 14 12 8 3 6 9 16 19 21 20 20 21
20 20 20 22 22 24 32 32 32 31 30 27 26 26 28 26 30 35 36 31 26 26 22 21 16 19 20 21 21 20 17 10 15 13 8 9 14 14 18 19 19 20 19
Wind_Direction
188 174 180 181 179 177 174 172 171 171 168 164 158 153 150 146 143 142 132 131 133 127 123 118 114 109 107 108 108 108 109 111 108 100 97 94 91 88 89 89 89 87 87
185 178 185 179 174 180 184 176 176 173 170 163 157 152 148 143 144 139 139 138 131 126 126 121 117 113 114 112 114 114 111 109 105 98 95 91 87 87 88 93 90 87 83
194 184 188 186 180 179 181 176 175 171 168 161 156 152 150 144 146 144 142 137 131 127 126 123 122 120 118 118 126 123 118 110 101 98 101 97 90 89 87 91 88 85 84
198 194 192 192 180 176 180 180 174 172 168 162 159 155 155 150 146 145 142 134 133 131 130 128 125 123 123 125 128 125 122 111 107 107 103 101 99 91 91 90 87 86 82
201 195 195 200 200 190 181 182 173 168 163 161 159 153 153 150 146 145 141 138 136 133 133 130 126 124 128 132 129 126 121 112 104 109 104 103 99 97 95 93 90 91 90
199 203 200 205 195 188 180 179 172 166 164 165 159 154 154 149 145 142 141 135 133 132 131 130 129 131 137 134 131 128 118 108 111 108 104 105 104 102 99 95 96 94 92
213 205 207 212 200 189 183 180 173 169 166 165 162 159 154 150 145 141 140 137 134 136 132 132 136 138 140 137 135 128 122 119 114 109 108 105 106 105 103 101 100 99 97
231 208 210 212 200 197 191 182 175 169 166 164 160 158 155 152 149 144 147 147 142 143 141 139 138 138 139 139 140 132 118 118 115 111 109 110 114 112 109 109 105 104 101
226 222 202 214 212 208 212 193 184 168 165 161 159 157 157 154 153 150 148 148 146 148 143 140 139 138 138 140 138 129 123 120 116 115 115 119 122 119 117 116 113 110 107
203 219 190 182 200 223 230 216 188 179 168 161 160 160 160 157 158 154 149 151 151 147 144 143 139 135 135 137 138 132 125 116 117 118 119 129 126 122 121 119 116 114 112
193 181 179 191 193 196 203 205 192 172 166 159 162 162 159 156 156 154 148 152 154 149 148 147 140 134 134 137 138 127 115 120 122 120 126 131 131 127 125 123 121 120 116
185 163 168 183 199 195 184 185 191 173 166 159 160 161 160 161 158 154 151 157 156 153 153 150 143 134 127 135 138 120 134 127 125 124 132 135 135 133 132 128 125 122 119
185 176 180 179 194 208 191 181 174 170 162 167 169 165 162 156 157 150 145 153 155 155 153 148 143 139 142 146 145 138 134 130 130 130 141 147 138 137 135 133 131 126 124
186 164 169 176 185 193 192 202 187 190 180 178 177 171 155 154 154 153 145 152 157 160 161 159 158 151 152 154 149 143 140 135 136 135 150 154 153 148 143 142 142 137 133
179 174 171 176 189 186 190 191 195 191 173 178 176 169 159 164 154 155 149 154 161 168 168 162 163 159 156 155 151 147 147 141 140 141 154 166 163 163 161 158 154 154 150
187 174 182 175 171 169 169 173 173 174 170 173 172 167 174 166 153 158 152 158 165 169 170 164 160 163 160 162 156 153 151 146 149 148 157 170 177 178 174 171 167 166 165
199 181 186 176 163 167 165 169 175 168 153 160 174 168 170 163 155 163 158 160 165 166 166 165 159 165 165 167 162 161 165 164 164 162 164 170 183 193 195 190 183 181 179
191 202 183 182 180 173 170 160 171 170 171 171 177 169 170 167 165 157 153 162 164 165 165 165 163 167 172 172 166 173 176 171 174 176 179 184 187 194 206 206 205 200 191
200 192 191 187 186 173 170 161 173 185 175 166 170 166 172 165 165 164 162 167 166 168 173 167 169 175 173 171 175 178 182 181 184 185 192 198 200 206 202 213 211 215 213
200 202 192 195 192 178 178 178 166 175 174 178 176 168 169 169 178 188 185 175 172 176 178 173 176 178 180 177 179 181 189 192 193 198 200 203 212 212 210 206 213 218 221
196 195 194 188 191 180 172 169 171 168 178 184 192 186 169 176 192 193 194 182 182 187 187 178 179 183 180 183 177 190 202 208 209 211 210 215 220 218 219 213 210 217 223
198 199 187 184 182 178 176 182 181 176 176 192 202 203 190 194 191 196 194 188 191 194 190 183 184 194 191 192 198 197 201 213 226 223 219 222 220 220 225 224 219 222 222
194 198 203 192 187 190 186 179 181 175 179 184 198 204 206 204 200 202 198 194 195 197 197 189 193 195 201 215 214 223 213 239 188 209 223 225 222 221 224 226 228 227 228
197 196 201 191 191 191 188 179 174 180 188 194 195 201 212 213 210 204 205 202 195 199 197 199 206 212 217 220 222 237 247 287 223 214 209 223 227 229 224 230 227 231 230
190 191 198 196 191 186 187 181 185 189 197 194 197 206 217 209 204 201 200 205 199 202 204 209 217 226 225 235 224 235 232 238 245 237 239 227 232 244 235 232 231 231 232
192 190 192 195 198 191 187 188 183 188 189 189 191 198 202 205 204 206 210 215 201 200 210 222 251 244 229 233 235 234 229 219 231 224 232 234 247 238 232 233 234 232 230